Weather History for Wooster, OH

Change the Weather History Date:

Monday, February 18, 2013

  Actual Average Record
Temperature  
Mean Temperature 22 °F -  
Max Temperature 44 °F 36 °F 55 °F (2011)
Min Temperature 1 °F 22 °F -5 °F (2007)
Degree Days  
Heating Degree Days 43    
Moisture  
Dew Point 16 °F    
Average Humidity 67    
Maximum Humidity 91    
Minimum Humidity 55    
Precipitation  
Precipitation 0.00 in - - ()
Sea Level Pressure  
Sea Level Pressure 30.11 in    
Wind  
Wind Speed 7 mph (South)    
Max Wind Speed 17 mph    
Max Gust Speed 23 mph    
Visibility 10 miles    
Events      
Averages and records for this station are not official NWS values.
T = Trace of Precipitation, MM = Missing Value Source: NWS Daily Summary

Daily Weather History Graph

Daily Weather History Graph

Search for Another Location

Airport:

Trip Planner

Search our weather history database for the weather conditions in past years. The results will help you decide how hot, cold, wet, or windy it might be!

Date:

Astronomy

Feb. 18, 2013 Rise Set
Actual Time 7:17 AM EST 6:06 PM EST
Civil Twilight 6:49 AM EST 6:34 PM EST
Nautical Twilight 6:17 AM EST 7:06 PM EST
Astronomical Twilight 5:45 AM EST 7:37 PM EST
Moon 11:49 AM EST (2/18) 1:57 AM EST (2/18)
Length of Visible Light 11h 44m
Length of Day
10h 48m
First Quarter, 58% of the Moon is Illuminated
Feb 18
First Quarter
Feb 25
Full
Mar 4
Last Quarter
Mar 11
New
Mar 19
First Quarter

Hourly Weather History & Observations

Time (EST) Temp. Windchill Dew Point Humidity Pressure Visibility Wind Dir Wind Speed Gust Speed Precip Events Conditions
12:56 AM 5.0 °F - 1.0 °F 84% 30.30 in 9.0 mi Calm Calm - N/A   Clear
1:56 AM 3.9 °F - -0.0 °F 84% 30.30 in 8.0 mi Calm Calm - N/A   Clear
2:56 AM 1.9 °F - -0.9 °F 88% 30.29 in 7.0 mi Calm Calm - N/A   Clear
3:56 AM 3.0 °F - 1.0 °F 91% 30.29 in 7.0 mi Calm Calm - N/A   Clear
4:56 AM 3.0 °F - -0.0 °F 87% 30.28 in 8.0 mi Calm Calm - N/A   Clear
6:56 AM 12.0 °F 0.5 °F 6.1 °F 77% 30.26 in 10.0 mi South 8.1 mph - N/A   Clear
7:56 AM 16.0 °F 3.6 °F 8.1 °F 71% 30.25 in 10.0 mi South 10.4 mph - N/A   Clear
8:56 AM 19.0 °F 6.1 °F 10.0 °F 68% 30.25 in 10.0 mi South 12.7 mph - N/A   Overcast
9:56 AM 21.9 °F 9.8 °F 10.9 °F 63% 30.22 in 10.0 mi South 12.7 mph - N/A   Mostly Cloudy
10:56 AM 26.1 °F 14.0 °F 14.0 °F 60% 30.18 in 10.0 mi South 15.0 mph - N/A   Clear
11:56 AM 30.0 °F 20.0 °F 17.1 °F 59% 30.14 in 10.0 mi South 12.7 mph 23.0 mph N/A   Clear
12:56 PM 34.0 °F 24.6 °F 19.9 °F 56% 30.09 in 10.0 mi South 13.8 mph 23.0 mph N/A   Clear
1:56 PM 36.0 °F 26.0 °F 21.9 °F 57% 30.05 in 10.0 mi South 17.3 mph 23.0 mph N/A   Clear
2:56 PM 39.0 °F 31.4 °F 24.1 °F 55% 30.03 in 10.0 mi South 12.7 mph 21.9 mph N/A   Clear
3:56 PM 41.0 °F 33.1 °F 26.1 °F 55% 30.01 in 10.0 mi South 15.0 mph - N/A   Clear
4:56 PM 42.1 °F 34.2 °F 27.0 °F 55% 29.99 in 10.0 mi South 16.1 mph 21.9 mph N/A   Clear
6:56 PM 39.9 °F 32.1 °F 28.0 °F 63% 29.94 in 10.0 mi South 13.8 mph - N/A   Clear
7:56 PM 39.9 °F 31.8 °F 28.0 °F 63% 29.92 in 10.0 mi South 15.0 mph - N/A   Clear
9:56 PM 43.0 °F 35.1 °F 30.0 °F 60% 29.85 in 10.0 mi South 17.3 mph - N/A   Overcast
10:56 PM 43.0 °F 36.4 °F 30.0 °F 60% 29.81 in 10.0 mi South 12.7 mph 23.0 mph N/A   Partly Cloudy
11:56 PM 44.1 °F 37.1 °F 30.0 °F 58% 29.78 in 10.0 mi South 15.0 mph - N/A   Scattered Clouds